Weather History for Kaneohe MCBH, HI

Change the Weather History Date:

Thursday, March 13, 2014

  Actual Average Record
Temperature  
Mean Temperature 75 °F -  
Max Temperature 81 °F 76 °F 84 °F (2003)
Min Temperature 69 °F 67 °F 33 °F (2004)
Cooling Degree Days 10    
Growing Degree Days 25 (Base 50)    
Moisture  
Dew Point 64 °F    
Average Humidity 66    
Maximum Humidity 79    
Minimum Humidity 52    
Precipitation  
Precipitation 0.00 in - - ()
Sea Level Pressure  
Sea Level Pressure 30.08 in    
Wind  
Wind Speed 9 mph (ENE)    
Max Wind Speed 12 mph    
Max Gust Speed 18 mph    
Visibility 7 miles    
Events      
Averages and records for this station are not official NWS values.
T = Trace of Precipitation, MM = Missing Value Source: NWS Daily Summary

Daily Weather History Graph

Daily Weather History Graph

Search for Another Location

Airport:

Trip Planner

Search our weather history database for the weather conditions in past years. The results will help you decide how hot, cold, wet, or windy it might be!

Date:

Astronomy

Mar. 13, 2014 Rise Set
Actual Time 6:41 AM HST 6:39 PM HST
Civil Twilight 6:19 AM HST 7:02 PM HST
Nautical Twilight 5:53 AM HST 7:27 PM HST
Astronomical Twilight 5:27 AM HST 7:53 PM HST
Moon 4:29 PM HST (3/13) 4:38 AM HST (3/13)
Length of Visible Light 12h 43m
Length of Day
11h 58m
Waxing Gibbous, 93% of the Moon is Illuminated
Mar 13
Waxing Gibbous
Mar 16
Full
Mar 23
Last Quarter
Mar 30
New
Apr 6
First Quarter

Hourly Weather History & Observations

Time (HST) Temp. Heat Index Dew Point Humidity Pressure Visibility Wind Dir Wind Speed Gust Speed Precip Events Conditions
12:17 AM 69.8 °F - 62.6 °F 78% 30.10 in 6.2 mi ENE 9.2 mph 17.3 mph N/A   Scattered Clouds
12:57 AM 69.8 °F - 63.0 °F 79% 30.08 in 8.0 mi ENE 9.2 mph 17.3 mph N/A   Scattered Clouds
1:57 AM 69.8 °F - 63.0 °F 79% 30.06 in 8.0 mi ENE 8.1 mph - N/A   Scattered Clouds
2:57 AM 69.8 °F - 63.0 °F 79% 30.03 in 8.0 mi ENE 9.2 mph - N/A   Clear
3:57 AM 69.8 °F - 63.0 °F 79% 30.03 in 7.0 mi East 10.4 mph - N/A   Partly Cloudy
4:57 AM 71.6 °F - 63.0 °F 74% 30.03 in 7.0 mi ENE 10.4 mph - N/A   Clear
5:57 AM 71.6 °F - 63.0 °F 74% 30.04 in 7.0 mi East 8.1 mph - N/A   Partly Cloudy
6:57 AM 71.6 °F - 63.0 °F 74% 30.06 in 7.0 mi East 11.5 mph 18.4 mph N/A   Partly Cloudy
7:57 AM 76.3 °F - 63.0 °F 63% 30.08 in 7.0 mi East 9.2 mph - N/A   Partly Cloudy
8:57 AM 77.5 °F - 64.0 °F 63% 30.09 in 8.0 mi ENE 10.4 mph 18.4 mph N/A   Partly Cloudy
9:27 AM 77.0 °F - 62.6 °F 61% 30.11 in 6.2 mi ENE 8.1 mph 16.1 mph N/A   Mostly Cloudy
9:57 AM 79.0 °F - 63.0 °F 58% 30.11 in 7.0 mi East 9.2 mph 17.3 mph N/A   Mostly Cloudy
10:57 AM 80.2 °F 81.9 °F 64.0 °F 58% 30.11 in 7.0 mi ENE 9.2 mph 17.3 mph N/A   Mostly Cloudy
11:04 AM 80.6 °F 82.3 °F 64.4 °F 58% 30.12 in 6.2 mi ENE 10.4 mph 17.3 mph N/A   Mostly Cloudy
11:14 AM 80.6 °F 82.3 °F 64.4 °F 58% 30.11 in 6.2 mi ENE 10.4 mph 17.3 mph N/A   Scattered Clouds
11:57 AM 80.2 °F 81.9 °F 64.0 °F 58% 30.09 in 7.0 mi ENE 10.4 mph - N/A   Mostly Cloudy
12:57 PM 81.5 °F 83.3 °F 64.9 °F 57% 30.07 in 8.0 mi ENE 9.2 mph - N/A   Scattered Clouds
1:57 PM 80.4 °F 81.7 °F 63.0 °F 55% 30.05 in 7.0 mi East 6.9 mph - N/A   Partly Cloudy
2:57 PM 80.4 °F 82.2 °F 64.9 °F 59% 30.04 in 7.0 mi ENE 9.2 mph - N/A   Partly Cloudy
3:57 PM 80.6 °F 82.2 °F 64.0 °F 57% 30.04 in 7.0 mi ENE 9.2 mph - N/A   Scattered Clouds
4:57 PM 81.3 °F 82.9 °F 64.0 °F 56% 30.04 in 7.0 mi ENE 8.1 mph - N/A   Scattered Clouds
5:57 PM 81.3 °F 82.6 °F 63.0 °F 54% 30.05 in 7.0 mi NE 9.2 mph - N/A   Clear
6:57 PM 81.3 °F 82.3 °F 62.1 °F 52% 30.06 in 7.0 mi ENE 8.1 mph - N/A   Partly Cloudy
7:57 PM 75.4 °F - 63.0 °F 65% 30.08 in 7.0 mi ENE 9.2 mph - N/A   Scattered Clouds
8:57 PM 75.4 °F - 64.0 °F 68% 30.10 in 7.0 mi ENE 10.4 mph - 0.00 in   Mostly Cloudy
9:57 PM 73.4 °F - 64.0 °F 72% 30.11 in 7.0 mi ENE 6.9 mph 17.3 mph N/A   Mostly Cloudy
10:57 PM 73.4 °F - 64.0 °F 72% 30.11 in 7.0 mi ENE 9.2 mph - N/A   Mostly Cloudy
11:48 PM 71.6 °F - 64.4 °F 78% 30.12 in 6.2 mi ENE 10.4 mph - N/A   Overcast
11:57 PM 71.6 °F - 64.9 °F 79% 30.10 in 7.0 mi ENE 9.2 mph - N/A   Overcast